Weather History for Coffeyville, KS

Change the Weather History Date:

Thursday, July 25, 2013

  Actual Average Record
Temperature  
Mean Temperature 78 °F -  
Max Temperature 90 °F 89 °F 107 °F (2012)
Min Temperature 68 °F 68 °F 57 °F (2004)
Cooling Degree Days 14    
Growing Degree Days 28 (Base 50)    
Moisture  
Dew Point 66 °F    
Average Humidity 69    
Maximum Humidity 93    
Minimum Humidity 43    
Precipitation  
Precipitation 0.00 in - - ()
Sea Level Pressure  
Sea Level Pressure 30.03 in    
Wind  
Wind Speed 3 mph (SSE)    
Max Wind Speed 10 mph    
Max Gust Speed -    
Visibility 10 miles    
Events      
Averages and records for this station are not official NWS values.
T = Trace of Precipitation, MM = Missing Value Source: NWS Daily Summary

Daily Weather History Graph

Daily Weather History Graph

Search for Another Location

Airport:

Trip Planner

Search our weather history database for the weather conditions in past years. The results will help you decide how hot, cold, wet, or windy it might be!

Date:

Astronomy

Jul. 25, 2013 Rise Set
Actual Time 6:21 AM CDT 8:35 PM CDT
Civil Twilight 5:52 AM CDT 9:04 PM CDT
Nautical Twilight 5:16 AM CDT 9:40 PM CDT
Astronomical Twilight 4:37 AM CDT 10:19 PM CDT
Moon 10:23 PM CDT (7/25) 9:46 AM CDT (7/25)
Length of Visible Light 15h 11m
Length of Day
14h 13m
Waning Gibbous, 88% of the Moon is Illuminated
Jul 25
Waning Gibbous
Jul 29
Last Quarter
Aug 6
New
Aug 14
First Quarter
Aug 20
Full

Hourly Weather History & Observations

Time (CDT) Temp. Heat Index Dew Point Humidity Pressure Visibility Wind Dir Wind Speed Gust Speed Precip Events Conditions
12:52 AM 73.0 °F - 69.1 °F 87% 30.02 in 10.0 mi Calm Calm - N/A   Clear
1:52 AM 71.1 °F - 68.0 °F 90% 30.03 in 10.0 mi North 4.6 mph - N/A   Clear
2:52 AM 71.1 °F - 66.0 °F 84% 30.03 in 10.0 mi Calm Calm - N/A   Clear
3:52 AM 69.1 °F - 66.9 °F 93% 30.02 in 10.0 mi Calm Calm - N/A   Clear
4:52 AM 69.1 °F - 66.0 °F 90% 30.02 in 10.0 mi Calm Calm - N/A   Clear
5:52 AM 68.0 °F - 64.9 °F 90% 30.03 in 10.0 mi Calm Calm - N/A   Clear
6:52 AM 69.1 °F - 64.9 °F 87% 30.04 in 10.0 mi Calm Calm - N/A   Clear
7:52 AM 70.0 °F - 64.9 °F 84% 30.05 in 10.0 mi Calm Calm - N/A   Clear
8:52 AM 73.9 °F - 66.9 °F 79% 30.06 in 10.0 mi Calm Calm - N/A   Clear
9:52 AM 78.1 °F - 66.9 °F 68% 30.07 in 10.0 mi Calm Calm - N/A   Partly Cloudy
10:52 AM 81.0 °F 83.8 °F 68.0 °F 65% 30.06 in 10.0 mi Calm Calm - N/A   Clear
11:52 AM 84.9 °F 86.6 °F 64.9 °F 51% 30.06 in 10.0 mi Variable 5.8 mph - N/A   Clear
12:52 PM 87.1 °F 88.9 °F 64.9 °F 48% 30.06 in 10.0 mi SE 6.9 mph - N/A   Clear
1:52 PM 88.0 °F 89.6 °F 64.9 °F 46% 30.05 in 10.0 mi South 9.2 mph - N/A   Clear
2:52 PM 88.0 °F 89.3 °F 64.0 °F 45% 30.04 in 10.0 mi South 10.4 mph - N/A   Clear
3:52 PM 88.0 °F 89.3 °F 64.0 °F 45% 30.03 in 10.0 mi SE 6.9 mph - N/A   Clear
4:52 PM 89.1 °F 90.3 °F 64.0 °F 43% 30.02 in 10.0 mi SSE 8.1 mph - N/A   Clear
5:52 PM 88.0 °F 89.6 °F 64.9 °F 46% 30.02 in 10.0 mi SSW 8.1 mph - N/A   Clear
6:52 PM 84.0 °F 87.0 °F 68.0 °F 58% 30.00 in 10.0 mi South 4.6 mph - N/A   Clear
7:52 PM 82.0 °F 84.1 °F 66.0 °F 58% 30.00 in 10.0 mi South 3.5 mph - N/A   Clear
8:52 PM 79.0 °F - 69.1 °F 72% 29.99 in 10.0 mi South 4.6 mph - N/A   Clear
9:52 PM 77.0 °F - 69.1 °F 76% 30.00 in 10.0 mi South 5.8 mph - N/A   Partly Cloudy
10:52 PM 77.0 °F - 69.1 °F 76% 30.00 in 10.0 mi SE 5.8 mph - N/A   Clear
11:52 PM 75.9 °F - 69.1 °F 79% 30.00 in 10.0 mi SE 3.5 mph - N/A   Scattered Clouds